Location: Hermaringen
(48.5952°N, 10.2585°E)
Time: 00:53:16
(UTC+00:00)

Altair - Pass Details

Date: 25 February 2026
Orbit: 1502 x 1682 km, 47.2° (Epoch: 10 March)

Event Time Altitude Azimuth Distance (km) Brightness Sun altitude
Rises 10:23:54 0° 282° (WNW) 4,735 9.8 30.5°
Reaches altitude 10° 10:31:06 10° 246° (WSW) 3,799 9.7 30.9°
Maximum altitude 10:32:23 10° 238° (WSW) 3,782 9.8 30.9°
Drops below altitude 10° 10:33:41 10° 230° (SW) 3,816 10.0 31.0°
Sets 10:41:06 0° 194° (SSW) 4,849 11.0 31.3°
